Voltar ao catálogo

DELTA 1 DEB

AtivoSSO
NORAD 12217·DEBRIS·🇺🇸 United States

Lançado Mar 5, 1978 de Vandenberg Space Force Base

Loading…

Próximas Passagens (próximas 24 horas)

TLE

AtualizadoSource: Space-Track

Época: Sep 14, 2026, 00:12 UTC

1 12217U 78026BJ  26257.00875128  .00000449  00000-0  21375-3 0  9997
2 12217  98.9380 283.7999 0019323 247.6027 141.2980 14.24352336353048

Acompanhe DELTA 1 DEB em tempo real com AllMySat

Download on the App Store